Regional Weather Roundup
Issued by NWS Huntsville, AL

Home | Current Version | Previous Version | Text Only | Print | Product List | Glossary On
Versions: 1 2 3 4 5 6 7 8 9 10 11 12 13 14 15 16 17 18 19 20 21 22 23 24 25 26 27 28 29 30 31 32 33 34 35 36 37 38 39 40 41 42 43 44 45 46 47 48 49 50
000
ASUS44 KHUN 291710
RWRHUN

WEATHER ROUNDUP FOR THE TENNESSEE VALLEY
NATIONAL WEATHER SERVICE HUNTSVILLE AL
1200 PM CDT SAT AUG 29 2015

ALZ001>004-291800-
NORTHWEST ALABAMA

CITY           SKY/WX    TMP DP  RH WIND       PRES   REMARKS
SHOALS AIRPORT CLOUDY    83  70  64 SW7       30.13F
SHOALS TVA RES   N/A     81 N/A N/A MISG        N/A
$$

ALZ005>007-016-291800-
NORTH CENTRAL ALABAMA

CITY           SKY/WX    TMP DP  RH WIND       PRES   REMARKS
DECATUR AP     CLOUDY    77  71  82 E6        30.14F
HUNTSVILLE AP  PTSUNNY   86  71  60 S15       30.13F HX  91
HUN NWS/UAH      N/A     84  69  59 S8          N/A
MERIDIANVILLE  PTSUNNY   81  63  54 SE10      30.15F
REDSTONE ARSN  MOSUNNY   83  71  68 SE12G20   30.13F
VINEMONT AP    FAIR      81  70  69 SE7       30.17F
$$

ALZ008>010-291800-
NORTHEAST ALABAMA

CITY           SKY/WX    TMP DP  RH WIND       PRES   REMARKS
ALBERTVILLE    PTSUNNY   81  75  83 SE5       30.17F
FORT PAYNE     MOSUNNY   81  64  57 S5        30.17F
SCOTTSBORO AP  PTSUNNY   82  68  61 S6G16     30.16F
SCOTTSBORO HCN   N/A     82 N/A N/A MISG        N/A
VALLEY HEAD      N/A     79 N/A N/A MISG        N/A
$$

TNZ076-096-097-291800-
SOUTHEASTERN MIDDLE TENNESSEE

CITY           SKY/WX    TMP DP  RH WIND       PRES   REMARKS
TULLAHOMA      PTSUNNY   81  68  65 S8        30.18F
WINCHESTER     MOSUNNY   81  70  69 SE6       30.17F
$$

...SURROUNDING SITES...

CITY           SKY/WX    TMP DP  RH WIND       PRES   REMARKS
ATLANTA        LGT RAIN  78  67  68 E10       30.22F
ANNISTON       CLOUDY    82  70  66 S5        30.16F
BIRMINGHAM     MOSUNNY   82  70  66 S6        30.16F
CHATTANOOGA    PTSUNNY   84  68  58 SE10G18   30.18F
DALTON         PTSUNNY   81  70  69 SE7       30.20F
GADSDEN        PTSUNNY   82  66  57 S6        30.15F
GOLDEN TRNGL   PTSUNNY   84  66  54 S7        30.11F
HALEYVILLE     PTSUNNY   77  72  84 S7        30.18F
JACKSON TN     SUNNY     86  72  62 S6        30.10F HX  92
MEMPHIS        MOSUNNY   90  67  46 VRB5      30.09S HX  93
NASHVILLE      PTSUNNY   85  68  56 S7        30.14F
OXFORD MS      FAIR      84  68  58 CALM      30.12F
ROME           MOSUNNY   81  71  71 SE6       30.18F
SAVANNAH       PTSUNNY   82  32  16 S3        30.13F
TUPELO         MOSUNNY   83  72  69 VRB5      30.11F
TUSCALOOSA     PTSUNNY   85  72  65 SE9       30.12F HX  91
$$

...GULF COAST WEATHER...

CITY           SKY/WX    TMP DP  RH WIND       PRES   REMARKS
GULFPORT       MOSUNNY   84  68  58 SE8       30.09S
PASCAGOULA     MOSUNNY   88  72  58 VRB6      30.08F HX  94
MOBILE         PTSUNNY   86  71  60 E7        30.10F HX  91
GULF SHORES    PTSUNNY   85  72  65 SE10G18   30.10S HX  91
PENSACOLA      PTSUNNY   80  71  74 NE6       30.09F
DESTIN         CLOUDY    83  74  74 N6        30.11R
PANAMA CITY    CLOUDY    80  72  75 E6        30.11R
APPALACHICOLA  CLOUDY    79  72  79 NE7       30.11S
$$



USA.gov is the U.S. government's official web portal to all federal, state and local government web resources and services.